Lake Success Weather Center

Moon Phase Calendar



Lake Success Water Level
Online Cameras

 


      

Current Conditions in East Porterville
9/21/2021 12:32:34 PM

85°F
Feels Like 84
Clear
Humidity
39%
Pressure
30.09"
Wind
4.6 mph (N)
Dew Point
57°F
UV Index
7/10 (High)
Visibility
6 mi

Hourly Forecast

Date & Time Tue, Sep 21
12:00 PM
Tue, Sep 21
1:00 PM
Tue, Sep 21
2:00 PM
Tue, Sep 21
3:00 PM
Tue, Sep 21
4:00 PM
Tue, Sep 21
5:00 PM
Tue, Sep 21
6:00 PM
Tue, Sep 21
7:00 PM
Tue, Sep 21
8:00 PM
Tue, Sep 21
9:00 PM
Tue, Sep 21
10:00 PM
Tue, Sep 21
11:00 PM
Wed, Sep 22
12:00 AM
Wed, Sep 22
1:00 AM
Wed, Sep 22
2:00 AM
Wed, Sep 22
3:00 AM
Wed, Sep 22
4:00 AM
Wed, Sep 22
5:00 AM
Wed, Sep 22
6:00 AM
Wed, Sep 22
7:00 AM
Wed, Sep 22
8:00 AM
Wed, Sep 22
9:00 AM
Wed, Sep 22
10:00 AM
Wed, Sep 22
11:00 AM
Wed, Sep 22
12:00 PM
Wed, Sep 22
1:00 PM
Wed, Sep 22
2:00 PM
Wed, Sep 22
3:00 PM
Wed, Sep 22
4:00 PM
Wed, Sep 22
5:00 PM
Wed, Sep 22
6:00 PM
Wed, Sep 22
7:00 PM
Wed, Sep 22
8:00 PM
Wed, Sep 22
9:00 PM
Wed, Sep 22
10:00 PM
Wed, Sep 22
11:00 PM
Thu, Sep 23
12:00 AM
Thu, Sep 23
1:00 AM
Thu, Sep 23
2:00 AM
Thu, Sep 23
3:00 AM
Thu, Sep 23
4:00 AM
Thu, Sep 23
5:00 AM
Thu, Sep 23
6:00 AM
Thu, Sep 23
7:00 AM
Thu, Sep 23
8:00 AM
Thu, Sep 23
9:00 AM
Thu, Sep 23
10:00 AM
Thu, Sep 23
11:00 AM
Condition
Clear

Clear

Clear

Clear

Clear

Clear

Clear

Clear

Clear

Clear

Clear

Clear

Clear

Clear

Clear

Clear

Clear

Clear

Clear

Clear

Clear

Clear

Clear

Clear

Clear

Clouds

Clear

Clear

Clear

Clear

Clear

Clear

Clouds

Clouds

Clouds

Clouds

Clouds

Clouds

Clouds

Clouds

Clouds

Clouds

Clear

Clear

Clear

Clear

Clear

Clear
Temperature 87°F85°F88°F91°F94°F97°F96°F86°F82°F81°F79°F78°F77°F76°F75°F74°F74°F73°F72°F72°F79°F85°F88°F92°F94°F97°F99°F100°F99°F98°F96°F85°F81°F79°F79°F78°F76°F74°F72°F69°F69°F69°F68°F68°F74°F78°F82°F86°F
Feels Like 85°F84°F86°F89°F91°F92°F91°F83°F80°F79°F79°F76°F75°F74°F73°F73°F72°F71°F70°F70°F79°F82°F84°F87°F90°F92°F94°F95°F95°F94°F91°F82°F79°F79°F77°F77°F74°F72°F70°F67°F67°F67°F66°F66°F72°F77°F80°F82°F
Cloudiness 0%0%0%0%0%0%0%0%0%0%0%0%0%0%0%0%0%0%0%0%1%6%5%5%1%15%10%7%6%5%0%1%18%33%46%55%91%88%61%47%39%33%0%0%0%3%3%3%
Visibility 6 mi6 mi6 mi6 mi6 mi6 mi6 mi6 mi6 mi6 mi6 mi6 mi6 mi6 mi6 mi6 mi6 mi6 mi6 mi6 mi6 mi6 mi6 mi6 mi6 mi6 mi6 mi6 mi6 mi6 mi6 mi6 mi6 mi6 mi6 mi6 mi6 mi6 mi6 mi6 mi6 mi6 mi6 mi6 mi6 mi6 mi6 mi6 mi
Precipitation 0%0%0%0%0%0%0%0%0%0%0%0%0%0%0%0%0%0%0%0%0%0%0%0%0%0%0%0%0%0%0%0%0%0%0%0%0%0%0%0%0%0%0%0%0%0%0%0%
Humidity 33%39%33%27%21%15%11%16%18%19%20%20%21%22%23%24%25%27%28%28%22%19%18%16%14%13%12%12%12%13%15%21%23%23%24%24%25%26%28%30%30%30%30%31%25%21%19%17%
Dew Point 54°F57°F55°F52°F48°F41°F31°F32°F32°F32°F32°F32°F32°F32°F32°F33°F33°F34°F34°F34°F35°F36°F37°F37°F37°F36°F35°F36°F37°F37°F38°F39°F37°F36°F37°F36°F35°F34°F34°F34°F34°F34°F34°F34°F34°F34°F33°F33°F
Pressure 30.09"30.09"30.09"30.06"30.03"30"30"30"30.03"30.06"30.06"30.06"30.09"30.09"30.09"30.09"30.09"30.09"30.09"30.09"30.09"30.09"30.09"30.06"30.03"30"29.97"29.94"29.91"29.91"29.88"29.91"29.94"29.94"29.94"29.94"29.94"29.91"29.91"29.91"29.91"29.91"29.91"29.91"29.91"29.91"29.91"29.88"
Wind Speed 5.6 mph6.9 mph7 mph6.3 mph5.4 mph4.8 mph3.7 mph4.7 mph6.3 mph7.2 mph5.9 mph5.8 mph6 mph5.7 mph5 mph5.6 mph5.4 mph4.8 mph4.6 mph4.7 mph2.4 mph4 mph4.8 mph5.9 mph6.2 mph6.3 mph6.6 mph7.9 mph8.6 mph10 mph8.7 mph3.8 mph1.9 mph6.6 mph6.4 mph6.2 mph3.4 mph4.8 mph4.3 mph2.1 mph4.9 mph5.6 mph3.3 mph4.3 mph3.2 mph4.6 mph5.1 mph6.3 mph
Wind
Direction
288°
WNW
293°
WNW
299°
WNW
300°
WNW
302°
WNW
312°
NW
328°
NNW
43°
NE
69°
ENE
80°
E
92°
E
111°
ESE
115°
ESE
112°
ESE
112°
ESE
109°
ESE
114°
ESE
115°
ESE
110°
ESE
105°
ESE
137°
SE
225°
SW
231°
SW
236°
SW
246°
WSW
261°
W
270°
W
282°
WNW
291°
WNW
296°
WNW
293°
WNW
314°
NW
116°
ESE
107°
ESE
116°
ESE
119°
ESE
131°
SE
134°
SE
136°
SE
110°
ESE
124°
SE
130°
SE
137°
SE
134°
SE
172°
S
227°
SW
235°
SW
242°
WSW

Daily Forecast

Date High Low Precip. Humidity
Today
Sep 21

Clear
97 °F
69 °F
0%
33%
Wednesday
Sep 22

Clear
100 °F
72 °F
0%
14%
Thursday
Sep 23

Clear
94 °F
69 °F
0%
17%
Friday
Sep 24

Clear
98 °F
72 °F
0%
13%
Saturday
Sep 25

Clear
95 °F
70 °F
0%
17%
Sunday
Sep 26

Clear
91 °F
67 °F
0%
21%
Monday
Sep 27

Clouds
86 °F
64 °F
0%
26%
Tuesday
Sep 28

Clear
85 °F
62 °F
0%
30%
Wednesday
Sep 29

Clouds
81 °F
60 °F
0%
43%
Thursday
Sep 30

Clouds
90 °F
63 °F
0%
27%
Friday
Oct 1

Clouds
96 °F
71 °F
0%
13%
Saturday
Oct 2

Clear
91 °F
68 °F
0%
25%
Sunday
Oct 3

Clouds
88 °F
67 °F
0%
26%
Monday
Oct 4

Clear
87 °F
63 °F
0%
20%
Tuesday
Oct 5

Clouds
84 °F
62 °F
0%
18%
Wednesday
Oct 6

Clear
79 °F
58 °F
0%
26%

Temperature 8-14 Day Outlook



Precipitation 8-14 Day Outlook




Quick Links
Lake Success News
Lake Success Photos
Lake Success Videos




About Us
Contact Us
Site Map
Search Site
Advertise With Us
   
LakeSucess.LakesOnline.com
THE LAKE SUCCESS WEBSITE

Copyright 2021, Lakes Online
Privacy    |    Legal